DB7MJ-6 Weather Reports


Display with metric or nautical units.
time (UTC)temp
F
wind
direction
speed
MPH
gust
MPH
rain 1hr
in
rain 24hr
in
rain mn
in
humidity
%
barometer
mb
20210613042708 61 319 2.0 3.0 0.00 0.00 0.00 81 1020.8
20210613042258 61 323 0.0 0.0 0.00 0.00 0.00 81 1020.7
20210613041848 61 329 2.0 5.0 0.00 0.00 0.00 81 1020.7
20210613041438 61 335 3.0 3.0 0.00 0.00 0.00 81 1020.7
20210613041028 61 348 3.0 5.0 0.00 0.00 0.00 81 1020.6
20210613040618 61 339 2.0 5.0 0.00 0.00 0.00 81 1020.6
20210613040208 62 339 3.0 3.0 0.00 0.00 0.00 81 1020.5
20210613035758 62 339 1.0 6.0 0.00 0.00 0.00 82 1020.5
20210613035348 62 329 2.0 3.0 0.00 0.00 0.00 81 1020.5
20210613034938 62 306 3.0 5.0 0.00 0.00 0.00 81 1020.5
20210613034528 62 349 2.0 3.0 0.00 0.00 0.00 81 1020.5
20210613034118 62 291 2.0 3.0 0.00 0.00 0.00 81 1020.5
20210613033708 62 312 2.0 5.0 0.00 0.00 0.00 81 1020.5
20210613033258 62 294 3.0 3.0 0.00 0.00 0.00 81 1020.5
20210613032848 62 295 2.0 6.0 0.00 0.00 0.00 81 1020.5
20210613032438 62 331 3.0 3.0 0.00 0.00 0.00 81 1020.5
20210613032028 62 347 5.0 5.0 0.00 0.00 0.00 80 1020.4
20210613031618 62 351 3.0 3.0 0.00 0.00 0.00 80 1020.4
20210613031208 62 328 3.0 5.0 0.00 0.00 0.00 80 1020.4
20210613030758 62 323 2.0 3.0 0.00 0.00 0.00 80 1020.4
20210613030348 62 311 2.0 3.0 0.00 0.00 0.00 79 1020.4
20210613025938 63 312 2.0 5.0 0.00 0.00 0.00 78 1020.3
20210613025528 63 318 1.0 3.0 0.00 0.00 0.00 78 1020.3
20210613025118 63 314 1.0 3.0 0.00 0.00 0.00 78 1020.3
20210613024708 63 306 1.0 3.0 0.00 0.00 0.00 77 1020.3
20210613024258 63 328 0.0 3.0 0.00 0.00 0.00 77 1020.3
20210613023848 63 346 1.0 2.0 0.00 0.00 0.00 77 1020.3
20210613023438 63 347 1.0 3.0 0.00 0.00 0.00 77 1020.3
20210613023028 63 338 2.0 6.0 0.00 0.00 0.00 77 1020.4
20210613022618 63 341 2.0 3.0 0.00 0.00 0.00 77 1020.4
20210613022208 63 323 2.0 3.0 0.00 0.00 0.00 76 1020.3
20210613021758 63 308 1.0 2.0 0.00 0.00 0.00 76 1020.4
20210613021348 63 347 3.0 5.0 0.00 0.00 0.00 76 1020.3
20210613020938 63 344 2.0 5.0 0.00 0.00 0.00 76 1020.4
20210613020528 63 350 1.0 3.0 0.00 0.00 0.00 76 1020.4
20210613020118 63 329 3.0 3.0 0.00 0.00 0.00 76 1020.4
20210613015707 63 337 2.0 3.0 0.00 0.00 0.00 76 1020.5
20210613015258 63 329 2.0 3.0 0.00 0.00 0.00 76 1020.5
20210613014848 64 307 2.0 3.0 0.00 0.00 0.00 75 1020.5
20210613014437 64 348 3.0 3.0 0.00 0.00 0.00 75 1020.5
20210613014028 64 320 3.0 3.0 0.00 0.00 0.00 75 1020.5
20210613013618 64 306 2.0 3.0 0.00 0.00 0.00 75 1020.6
20210613013207 64 305 1.0 3.0 0.00 0.00 0.00 75 1020.7
20210613012757 64 330 0.0 2.0 0.00 0.00 0.00 75 1020.7
20210613012347 64 342 3.0 3.0 0.00 0.00 0.00 75 1020.7
20210613011937 64 346 3.0 5.0 0.00 0.00 0.00 75 1020.7
20210613011527 64 7 2.0 3.0 0.00 0.00 0.00 74 1020.8
20210613011117 64 353 3.0 3.0 0.00 0.00 0.00 74 1020.8
20210613010708 64 343 2.0 3.0 0.00 0.00 0.00 74 1020.7
20210613010257 64 355 2.0 3.0 0.00 0.00 0.00 74 1020.8
20210613005847 64 348 2.0 3.0 0.00 0.00 0.00 74 1020.8
20210613005437 64 355 2.0 3.0 0.00 0.00 0.00 74 1020.9
20210613005027 64 340 2.0 3.0 0.00 0.00 0.00 73 1021.0
20210613004617 64 354 3.0 5.0 0.00 0.00 0.00 73 1021.0
20210613004207 64 347 3.0 6.0 0.00 0.00 0.00 73 1020.9
20210613003757 65 343 2.0 5.0 0.00 0.00 0.00 72 1020.9
20210613003347 65 337 2.0 3.0 0.00 0.00 0.00 72 1020.9
20210613002937 65 17 1.0 2.0 0.00 0.00 0.00 72 1020.9
20210613002527 65 344 2.0 3.0 0.00 0.00 0.00 72 1021.0
20210613002117 65 345 3.0 3.0 0.00 0.00 0.00 72 1021.0
20210613001707 65 350 5.0 5.0 0.00 0.00 0.00 71 1021.0
20210613001257 65 354 5.0 5.0 0.00 0.00 0.00 71 1021.1
20210613000847 65 4 3.0 5.0 0.00 0.00 0.00 71 1021.1
20210613000438 65 351 2.0 3.0 0.00 0.00 0.00 70 1021.1
20210613000027 65 350 3.0 3.0 0.00 0.00 0.00 70 1021.1
20210612235617 65 334 3.0 5.0 0.00 0.00 0.00 70 1021.1
20210612235207 65 338 5.0 5.0 0.00 0.00 0.00 70 1021.2
20210612234757 66 350 3.0 3.0 0.00 0.00 0.00 70 1021.2
20210612234347 66 354 3.0 5.0 0.00 0.00 0.00 69 1021.1
20210612233937 66 347 3.0 5.0 0.00 0.00 0.00 69 1021.1
20210612233527 66 351 3.0 5.0 0.00 0.00 0.00 69 1021.1
20210612233117 66 341 2.0 3.0 0.00 0.00 0.00 69 1021.2
20210612232707 66 352 2.0 5.0 0.00 0.00 0.00 69 1021.2
20210612232257 66 339 5.0 6.0 0.00 0.00 0.00 69 1021.1
20210612231847 66 350 3.0 5.0 0.00 0.00 0.00 68 1021.0
20210612231437 66 354 5.0 6.0 0.00 0.00 0.00 68 1021.0
20210612231027 66 347 3.0 3.0 0.00 0.00 0.00 68 1021.0
20210612230617 66 351 2.0 5.0 0.00 0.00 0.00 68 1021.0
20210612230207 66 339 2.0 3.0 0.00 0.00 0.00 68 1021.1
20210612225757 66 5 2.0 3.0 0.00 0.00 0.00 68 1021.0
20210612225347 67 352 3.0 5.0 0.00 0.00 0.00 68 1021.0
20210612224937 67 349 5.0 6.0 0.00 0.00 0.00 67 1021.0
20210612224527 67 351 3.0 5.0 0.00 0.00 0.00 67 1020.9
20210612224117 67 2 3.0 5.0 0.00 0.00 0.00 67 1020.9
20210612223707 67 338 3.0 5.0 0.00 0.00 0.00 67 1021.0
20210612223257 67 354 3.0 5.0 0.00 0.00 0.00 66 1021.0
20210612222847 67 341 5.0 6.0 0.00 0.00 0.00 66 1020.9
20210612222437 67 323 6.0 8.0 0.00 0.00 0.00 66 1020.9
20210612222027 67 306 5.0 6.0 0.00 0.00 0.00 66 1020.9
20210612221617 68 314 5.0 7.0 0.00 0.00 0.00 66 1020.8
20210612221207 68 314 3.0 5.0 0.00 0.00 0.00 65 1020.8
20210612220757 68 312 3.0 7.0 0.00 0.00 0.00 65 1020.9
20210612220347 68 292 3.0 8.0 0.00 0.00 0.00 65 1020.9
20210612215937 68 293 8.0 10.0 0.00 0.00 0.00 65 1020.8
20210612215527 68 331 7.0 8.0 0.00 0.00 0.00 65 1020.8
20210612215117 68 302 6.0 10.0 0.00 0.00 0.00 65 1020.8
20210612214707 68 299 3.0 8.0 0.00 0.00 0.00 64 1020.8
20210612214257 68 306 6.0 12.0 0.00 0.00 0.00 64 1020.7
20210612213847 68 332 6.0 8.0 0.00 0.00 0.00 64 1020.6
20210612213437 69 317 5.0 9.0 0.00 0.00 0.00 64 1020.6
20210612213027 69 294 6.0 7.0 0.00 0.00 0.00 64 1020.6
20210612212617 69 296 3.0 7.0 0.00 0.00 0.00 64 1020.5
20210612212207 69 320 5.0 9.0 0.00 0.00 0.00 64 1020.3
20210612211757 69 306 7.0 10.0 0.00 0.00 0.00 63 1020.3
20210612211347 69 332 5.0 7.0 0.00 0.00 0.00 63 1020.3
20210612210937 69 341 6.0 8.0 0.00 0.00 0.00 63 1020.3
20210612210527 69 310 7.0 10.0 0.00 0.00 0.00 63 1020.2
20210612210117 69 311 6.0 8.0 0.00 0.00 0.00 64 1020.1
20210612205707 70 321 2.0 3.0 0.00 0.00 0.00 65 1020.1
20210612205257 70 340 8.0 12.0 0.00 0.00 0.00 65 1020.0
20210612204847 70 325 5.0 7.0 0.00 0.00 0.00 65 1019.9
20210612204437 70 330 3.0 3.0 0.00 0.00 0.00 64 1019.9
20210612204027 71 336 2.0 3.0 0.00 0.00 0.00 64 1019.8
20210612203617 71 289 1.0 3.0 0.00 0.00 0.00 64 1019.7
20210612203207 71 266 1.0 7.0 0.00 0.00 0.00 63 1019.8
20210612202757 71 260 3.0 5.0 0.00 0.00 0.00 63 1019.7
20210612202347 71 248 1.0 3.0 0.00 0.00 0.00 62 1019.6
20210612201937 71 241 3.0 3.0 0.00 0.00 0.00 62 1019.7
20210612201527 71 252 5.0 3.0 0.00 0.00 0.00 61 1019.7
20210612201117 71 273 3.0 6.0 0.00 0.00 0.00 61 1019.6
20210612200707 71 275 6.0 12.0 0.00 0.00 0.00 60 1019.6
20210612200257 71 271 3.0 7.0 0.00 0.00 0.00 61 1019.5
20210612195847 71 248 3.0 3.0 0.00 0.00 0.00 61 1019.5
20210612195437 71 250 3.0 3.0 0.00 0.00 0.00 61 1019.5
20210612195027 71 239 5.0 7.0 0.00 0.00 0.00 61 1019.5
20210612194617 71 275 3.0 3.0 0.00 0.00 0.00 60 1019.4
20210612194207 72 231 3.0 6.0 0.00 0.00 0.00 59 1019.4
20210612193757 72 250 5.0 8.0 0.00 0.00 0.00 58 1019.4
20210612193347 72 260 3.0 5.0 0.00 0.00 0.00 56 1019.3
20210612192937 72 257 3.0 6.0 0.00 0.00 0.00 56 1019.1
20210612192527 72 258 3.0 3.0 0.00 0.00 0.00 55 1019.1
20210612192117 72 296 5.0 10.0 0.00 0.00 0.00 54 1019.1
20210612191707 72 251 6.0 6.0 0.00 0.00 0.00 53 1019.0
20210612191257 72 136 6.0 5.0 0.00 0.00 0.00 53 1019.0
20210612190847 73 238 0.0 1.0 0.00 0.00 0.00 53 1018.9
20210612190437 73 250 1.0 2.0 0.00 0.00 0.00 52 1018.9
20210612190027 73 287 7.0 8.0 0.00 0.00 0.00 52 1018.9
20210612185617 73 282 5.0 12.0 0.00 0.00 0.00 52 1018.8
20210612185207 73 291 5.0 6.0 0.00 0.00 0.00 52 1018.7
20210612184757 73 274 5.0 7.0 0.00 0.00 0.00 53 1018.7
20210612184347 73 214 5.0 6.0 0.00 0.00 0.00 52 1018.7
20210612183937 73 280 3.0 5.0 0.00 0.00 0.00 52 1018.6
20210612183527 74 249 7.0 9.0 0.00 0.00 0.00 52 1018.6
20210612183117 74 233 6.0 8.0 0.00 0.00 0.00 53 1018.6
20210612182707 74 250 6.0 6.0 0.00 0.00 0.00 52 1018.5
20210612182257 74 243 3.0 5.0 0.00 0.00 0.00 51 1018.5
20210612181847 74 275 5.0 8.0 0.00 0.00 0.00 51 1018.5
20210612181437 74 274 2.0 3.0 0.00 0.00 0.00 51 1018.5
20210612181027 74 253 3.0 6.0 0.00 0.00 0.00 51 1018.5
20210612180617 74 229 3.0 7.0 0.00 0.00 0.00 51 1018.4
20210612180207 75 254 3.0 5.0 0.00 0.00 0.00 50 1018.4
20210612175757 75 297 2.0 2.0 0.00 0.00 0.00 50 1018.3
20210612175347 75 295 3.0 6.0 0.00 0.00 0.00 50 1018.4
20210612174937 75 273 3.0 3.0 0.00 0.00 0.00 50 1018.3
20210612174527 75 254 5.0 8.0 0.00 0.00 0.00 50 1018.4
20210612174117 75 210 3.0 8.0 0.00 0.00 0.00 49 1018.3
20210612173707 76 209 3.0 6.0 0.00 0.00 0.00 49 1018.3
20210612173257 76 210 6.0 7.0 0.00 0.00 0.00 49 1018.3
20210612172846 76 268 6.0 9.0 0.00 0.00 0.00 48 1018.2
20210612172437 77 224 6.0 7.0 0.00 0.00 0.00 47 1018.2
20210612172027 77 205 3.0 7.0 0.00 0.00 0.00 47 1018.1
20210612171617 77 257 5.0 7.0 0.00 0.00 0.00 46 1018.1
20210612171206 77 254 3.0 6.0 0.00 0.00 0.00 46 1018.1
20210612170757 77 241 2.0 3.0 0.00 0.00 0.00 46 1018.1
20210612170346 77 217 2.0 3.0 0.00 0.00 0.00 46 1018.1
20210612165937 77 210 6.0 12.0 0.00 0.00 0.00 46 1018.0
20210612165527 77 158 6.0 9.0 0.00 0.00 0.00 46 1017.8
20210612165116 77 243 3.0 5.0 0.00 0.00 0.00 46 1017.9
20210612164706 77 276 5.0 6.0 0.00 0.00 0.00 46 1017.8
20210612164257 77 329 5.0 9.0 0.00 0.00 0.00 45 1017.8
20210612163846 77 204 3.0 7.0 0.00 0.00 0.00 46 1017.8
20210612163436 77 189 5.0 6.0 0.00 0.00 0.00 46 1017.8
20210612163026 77 184 0.0 3.0 0.00 0.00 0.00 46 1017.8
20210612162616 77 211 7.0 8.0 0.00 0.00 0.00 46 1017.9
20210612162206 77 245 5.0 5.0 0.00 0.00 0.00 46 1017.9
20210612161756 77 217 5.0 6.0 0.00 0.00 0.00 46 1017.9
20210612161347 77 251 7.0 9.0 0.00 0.00 0.00 45 1017.9
20210612160936 77 250 5.0 12.0 0.00 0.00 0.00 46 1017.8
20210612160526 77 238 6.0 12.0 0.00 0.00 0.00 45 1017.9
20210612160116 77 252 5.0 10.0 0.00 0.00 0.00 46 1017.9
20210612155706 76 200 5.0 6.0 0.00 0.00 0.00 47 1017.9
20210612155256 76 225 6.0 8.0 0.00 0.00 0.00 47 1017.9
20210612154846 76 240 6.0 12.0 0.00 0.00 0.00 46 1017.9
20210612154436 76 245 3.0 7.0 0.00 0.00 0.00 45 1017.9
20210612154026 76 211 2.0 3.0 0.00 0.00 0.00 46 1017.9
20210612153616 76 270 5.0 9.0 0.00 0.00 0.00 45 1018.0
20210612153206 76 270 3.0 6.0 0.00 0.00 0.00 46 1018.1
20210612152756 76 260 5.0 12.0 0.00 0.00 0.00 45 1018.1
20210612152346 77 274 7.0 12.0 0.00 0.00 0.00 45 1018.1
20210612151936 77 218 5.0 6.0 0.00 0.00 0.00 45 1018.1
20210612151526 77 224 3.0 5.0 0.00 0.00 0.00 45 1018.2
20210612151116 77 205 5.0 5.0 0.00 0.00 0.00 45 1018.1
20210612150706 77 237 5.0 7.0 0.00 0.00 0.00 45 1018.1
20210612150256 76 226 6.0 6.0 0.00 0.00 0.00 45 1018.1
20210612145846 76 212 5.0 10.0 0.00 0.00 0.00 45 1018.1
20210612145436 76 242 7.0 14.0 0.00 0.00 0.00 45 1018.2
20210612145026 76 281 6.0 12.0 0.00 0.00 0.00 44 1018.2
20210612144616 77 278 8.0 12.0 0.00 0.00 0.00 43 1018.1
20210612144206 78 267 10.0 10.0 0.00 0.00 0.00 42 1018.2
20210612143756 78 233 7.0 10.0 0.00 0.00 0.00 42 1018.2
20210612143346 78 264 9.0 13.0 0.00 0.00 0.00 40 1018.2
20210612142936 78 266 7.0 12.0 0.00 0.00 0.00 39 1018.1
20210612142526 78 290 7.0 12.0 0.00 0.00 0.00 39 1018.2
20210612142116 78 269 6.0 14.0 0.00 0.00 0.00 38 1018.2
20210612141706 78 291 7.0 10.0 0.00 0.00 0.00 37 1018.2
20210612141257 78 277 3.0 10.0 0.00 0.00 0.00 36 1018.2
20210612140846 78 272 3.0 5.0 0.00 0.00 0.00 36 1018.2
20210612140436 78 279 9.0 12.0 0.00 0.00 0.00 35 1018.2
20210612140026 78 273 9.0 12.0 0.00 0.00 0.00 34 1018.3
20210612135617 78 246 5.0 6.0 0.00 0.00 0.00 34 1018.2
20210612135206 78 255 10.0 12.0 0.00 0.00 0.00 35 1018.2
20210612134757 78 267 5.0 5.0 0.00 0.00 0.00 36 1018.1
20210612134346 78 281 7.0 10.0 0.00 0.00 0.00 34 1018.1
20210612133936 78 267 8.0 12.0 0.00 0.00 0.00 33 1018.1
20210612133526 79 292 7.0 13.0 0.00 0.00 0.00 33 1018.1
20210612133116 79 227 3.0 6.0 0.00 0.00 0.00 34 1018.1
20210612132706 79 226 2.0 3.0 0.00 0.00 0.00 34 1018.0
20210612132256 79 243 7.0 8.0 0.00 0.00 0.00 34 1018.2
20210612131846 79 195 6.0 8.0 0.00 0.00 0.00 35 1018.1
20210612131436 78 263 8.0 10.0 0.00 0.00 0.00 36 1018.1
20210612131026 79 271 6.0 12.0 0.00 0.00 0.00 36 1018.1
20210612130616 79 292 5.0 9.0 0.00 0.00 0.00 37 1018.1
20210612130206 78 241 2.0 2.0 0.00 0.00 0.00 39 1018.1
20210612125756 78 288 5.0 9.0 0.00 0.00 0.00 40 1018.1
20210612125346 78 254 3.0 3.0 0.00 0.00 0.00 40 1018.2
20210612124936 78 226 2.0 6.0 0.00 0.00 0.00 39 1018.2
20210612124526 78 220 7.0 8.0 0.00 0.00 0.00 40 1018.2
20210612124116 78 226 6.0 12.0 0.00 0.00 0.00 40 1018.2
20210612123706 78 239 3.0 6.0 0.00 0.00 0.00 39 1018.2
20210612123256 78 224 2.0 3.0 0.00 0.00 0.00 41 1018.2
20210612122846 79 294 2.0 5.0 0.00 0.00 0.00 41 1018.2
20210612122436 78 313 3.0 3.0 0.00 0.00 0.00 37 1018.2
20210612122026 78 286 3.0 6.0 0.00 0.00 0.00 39 1018.2
20210612121617 78 272 3.0 9.0 0.00 0.00 0.00 41 1018.1
20210612121206 78 342 5.0 6.0 0.00 0.00 0.00 41 1018.1
20210612120756 78 296 5.0 8.0 0.00 0.00 0.00 38 1018.2
20210612120346 78 298 2.0 3.0 0.00 0.00 0.00 38 1018.2
20210612115936 78 265 5.0 7.0 0.00 0.00 0.00 38 1018.2
20210612115526 78 279 9.0 9.0 0.00 0.00 0.00 40 1018.2
20210612115116 77 316 5.0 3.0 0.00 0.00 0.00 42 1018.2
20210612114706 77 320 7.0 8.0 0.00 0.00 0.00 42 1018.3
20210612114256 77 346 7.0 12.0 0.00 0.00 0.00 41 1018.4
20210612113846 77 353 6.0 9.0 0.00 0.00 0.00 42 1018.4
20210612113436 77 337 6.0 6.0 0.00 0.00 0.00 41 1018.4
20210612113026 77 319 7.0 12.0 0.00 0.00 0.00 39 1018.5
20210612112616 77 331 5.0 3.0 0.00 0.00 0.00 42 1018.5
20210612112206 77 340 3.0 6.0 0.00 0.00 0.00 43 1018.5
20210612111756 77 325 5.0 6.0 0.00 0.00 0.00 43 1018.5
20210612111346 77 322 7.0 10.0 0.00 0.00 0.00 41 1018.5
20210612110936 77 334 6.0 7.0 0.00 0.00 0.00 43 1018.4
20210612110526 77 320 5.0 6.0 0.00 0.00 0.00 43 1018.5
20210612110116 77 332 6.0 9.0 0.00 0.00 0.00 43 1018.5
20210612105706 77 350 8.0 9.0 0.00 0.00 0.00 43 1018.5
20210612105256 77 315 5.0 8.0 0.00 0.00 0.00 42 1018.6
20210612104846 77 0 6.0 9.0 0.00 0.00 0.00 42 1018.5
20210612104436 76 329 5.0 10.0 0.00 0.00 0.00 46 1018.6
20210612104026 76 1 3.0 5.0 0.00 0.00 0.00 47 1018.5
20210612103616 76 345 5.0 3.0 0.00 0.00 0.00 46 1018.7
20210612103206 76 6 5.0 7.0 0.00 0.00 0.00 47 1018.7
20210612102756 76 6 5.0 5.0 0.00 0.00 0.00 48 1018.7
20210612102346 76 358 6.0 6.0 0.00 0.00 0.00 48 1018.7
20210612101936 76 14 3.0 5.0 0.00 0.00 0.00 47 1018.7
20210612101526 76 323 5.0 5.0 0.00 0.00 0.00 47 1018.7
20210612101116 76 0 5.0 8.0 0.00 0.00 0.00 48 1018.7
20210612100706 75 352 5.0 8.0 0.00 0.00 0.00 47 1018.7
20210612100256 75 348 5.0 8.0 0.00 0.00 0.00 47 1018.8
20210612095846 76 16 6.0 5.0 0.00 0.00 0.00 46 1018.8
20210612095436 76 355 5.0 7.0 0.00 0.00 0.00 48 1018.7
20210612095026 75 306 5.0 8.0 0.00 0.00 0.00 49 1018.7
20210612094616 74 356 5.0 6.0 0.00 0.00 0.00 51 1018.7
20210612094206 74 26 5.0 7.0 0.00 0.00 0.00 51 1018.7
20210612093756 75 40 6.0 8.0 0.00 0.00 0.00 50 1018.8
20210612093346 75 3 1.0 3.0 0.00 0.00 0.00 50 1018.7
20210612092936 75 17 3.0 3.0 0.00 0.00 0.00 48 1018.7
20210612092526 75 337 3.0 7.0 0.00 0.00 0.00 49 1018.7
20210612092116 75 115 2.0 3.0 0.00 0.00 0.00 50 1018.7
20210612091706 74 68 2.0 5.0 0.00 0.00 0.00 50 1018.7
20210612091256 74 354 2.0 7.0 0.00 0.00 0.00 51 1018.7
20210612090846 74 24 1.0 3.0 0.00 0.00 0.00 51 1018.7
20210612090436 73 337 3.0 5.0 0.00 0.00 0.00 51 1018.8
20210612090026 73 353 2.0 3.0 0.00 0.00 0.00 51 1018.8
20210612085616 74 357 3.0 3.0 0.00 0.00 0.00 51 1018.9
20210612085206 74 326 3.0 5.0 0.00 0.00 0.00 50 1018.9
20210612084756 74 343 1.0 3.0 0.00 0.00 0.00 51 1018.9
20210612084346 73 48 2.0 3.0 0.00 0.00 0.00 51 1018.9
20210612083936 73 89 1.0 2.0 0.00 0.00 0.00 51 1018.9
20210612083526 73 33 2.0 5.0 0.00 0.00 0.00 53 1018.9
20210612083116 72 167 1.0 2.0 0.00 0.00 0.00 56 1018.9
20210612082706 72 222 1.0 2.0 0.00 0.00 0.00 56 1018.9
20210612082256 72 263 2.0 3.0 0.00 0.00 0.00 57 1018.9
20210612081846 72 255 2.0 3.0 0.00 0.00 0.00 57 1018.9
20210612081436 71 171 1.0 2.0 0.00 0.00 0.00 56 1018.9
20210612081026 71 145 1.0 2.0 0.00 0.00 0.00 56 1018.8
20210612080616 70 145 0.0 1.0 0.00 0.00 0.00 58 1018.8
20210612080206 70 145 1.0 1.0 0.00 0.00 0.00 58 1018.8
20210612075756 69 145 1.0 3.0 0.00 0.00 0.00 59 1018.8
20210612075346 69 145 2.0 2.0 0.00 0.00 0.00 59 1018.9
20210612074937 69 145 0.0 3.0 0.00 0.00 0.00 59 1019.0
20210612074526 69 145 2.0 3.0 0.00 0.00 0.00 58 1019.2
20210612074115 68 145 0.0 1.0 0.00 0.00 0.00 60 1019.2
20210612073706 68 145 1.0 2.0 0.00 0.00 0.00 59 1019.2
20210612073256 67 145 1.0 2.0 0.00 0.00 0.00 61 1019.2
20210612072846 67 145 1.0 2.0 0.00 0.00 0.00 62 1019.3
20210612072436 67 145 0.0 1.0 0.00 0.00 0.00 64 1019.3
20210612072025 67 145 0.0 0.0 0.00 0.00 0.00 66 1019.3
20210612071615 67 145 1.0 1.0 0.00 0.00 0.00 66 1019.3
20210612071205 67 145 1.0 2.0 0.00 0.00 0.00 67 1019.2
20210612070756 67 145 2.0 2.0 0.00 0.00 0.00 67 1019.3
20210612070345 66 145 1.0 2.0 0.00 0.00 0.00 67 1019.3
20210612065936 66 145 0.0 0.0 0.00 0.00 0.00 68 1019.2
20210612065525 66 145 0.0 0.0 0.00 0.00 0.00 70 1019.2
20210612065115 65 145 0.0 0.0 0.00 0.00 0.00 72 1019.3
20210612064705 64 145 0.0 0.0 0.00 0.00 0.00 72 1019.2
20210612064255 63 145 0.0 0.0 0.00 0.00 0.00 74 1019.3
20210612063846 62 145 0.0 0.0 0.00 0.00 0.00 75 1019.3
20210612063436 62 145 1.0 2.0 0.00 0.00 0.00 76 1019.2
20210612063026 61 145 0.0 1.0 0.00 0.00 0.00 77 1019.2
20210612062616 60 145 1.0 2.0 0.00 0.00 0.00 78 1019.1
20210612062205 60 145 2.0 3.0 0.00 0.00 0.00 78 1019.1
20210612061755 59 145 2.0 2.0 0.00 0.00 0.00 80 1019.1
20210612061345 59 145 2.0 3.0 0.00 0.00 0.00 82 1019.1
20210612060935 58 145 2.0 3.0 0.00 0.00 0.00 83 1019.1
20210612060525 57 154 2.0 3.0 0.00 0.00 0.00 84 1019.2
20210612060115 57 142 3.0 3.0 0.00 0.00 0.00 84 1019.1
20210612055705 57 141 5.0 5.0 0.00 0.00 0.00 85 1019.2
20210612055255 56 153 2.0 3.0 0.00 0.00 0.00 84 1019.3
20210612054845 56 142 2.0 3.0 0.00 0.00 0.00 84 1019.3
20210612054435 56 143 2.0 3.0 0.00 0.00 0.00 84 1019.3
20210612054025 56 151 2.0 3.0 0.00 0.00 0.00 84 1019.2
20210612053615 56 148 2.0 3.0 0.00 0.00 0.00 84 1019.2
20210612053205 55 143 2.0 3.0 0.00 0.00 0.00 84 1019.3
20210612052755 55 147 2.0 3.0 0.00 0.00 0.00 85 1019.3
20210612052345 53 144 2.0 3.0 0.00 0.00 0.00 88 1019.3
20210612051935 53 144 2.0 3.0 0.00 0.00 0.00 88 1019.3
20210612051525 53 144 2.0 3.0 0.00 0.00 0.00 88 1019.3
20210612051115 53 144 2.0 3.0 0.00 0.00 0.00 88 1019.3
20210612050705 53 144 2.0 3.0 0.00 0.00 0.00 88 1019.3
20210612050255 53 144 2.0 3.0 0.00 0.00 0.00 88 1019.3
20210612045845 53 144 2.0 3.0 0.00 0.00 0.00 88 1019.3
20210612045435 53 144 2.0 3.0 0.00 0.00 0.00 88 1019.3
20210612045025 53 144 2.0 3.0 0.00 0.00 0.00 88 1019.3
20210612044615 53 144 2.0 3.0 0.00 0.00 0.00 88 1019.3
20210612044205 53 144 2.0 3.0 0.00 0.00 0.00 88 1019.3
20210612043755 53 144 2.0 3.0 0.00 0.00 0.00 88 1019.3
20210612043345 53 144 2.0 3.0 0.00 0.00 0.00 88 1019.3